Location: D?uga
(50.2667°N, 19.7833°E)
Time: 21:47:52
(UTC+00:00)

SL-16 R/B - Pass Details

Date: 23 May 2024
Orbit: 842 x 845 km, 71.0° (Epoch: 22 June)

Event Time Altitude Azimuth Distance (km) Brightness Sun altitude
Rises 01:36:26 0° 322° (NW) 3,416 5.5 -8.9°
Reaches altitude 10° 01:39:18 10° 309° (NW) 2,476 4.6 -8.6°
Maximum altitude 01:43:43 24° 258° (WSW) 1,691 3.3 -8.1°
Drops below altitude 10° 01:48:07 10° 206° (SSW) 2,462 4.0 -7.6°
Enters shadow 01:49:10 - 200° (SSW) 2,782 4.3 -7.5°
